This is the latest recevied weather packets stored in our database for station/object NB9X. If no packets are shown the sender has not sent any weather packets the latest 10 day(s).
| Time | Temp. | Humidity | Pressure | Rain* | Wind** | Luminosity | Snow |
|---|---|---|---|---|---|---|---|
| 1777853894 | 22.78° C | 100% | 1014.5 hPa | 0 mm | - | - | - |
| 1777853594 | 22.78° C | 100% | 1014.4 hPa | 0 mm | - | - | - |
| 1777853329 | 23.33° C | 100% | 1014.2 hPa | 0 mm | - | - | - |
| 1777853294 | 22.78° C | 100% | 1014.3 hPa | 0 mm | - | - | - |
| 1777852995 | 23.33° C | 100% | 1014.2 hPa | 0 mm | - | - | - |
| 1777852891 | 23.33° C | 100% | 1014.2 hPa | 0 mm | - | - | - |
| 1777852694 | 23.33° C | 100% | 1014.2 hPa | 0 mm | - | - | - |
| 1777852394 | 23.33° C | 100% | 1014.2 hPa | 0 mm | - | - | - |
| 1777852094 | 23.33° C | 100% | 1014.2 hPa | 0 mm | - | - | - |
| 1777851794 | 23.33° C | 100% | 1014.2 hPa | 0 mm | - | - | - |
| 1777851494 | 23.33° C | 100% | 1014.2 hPa | 0 mm | - | - | - |
| 1777851194 | 23.89° C | 100% | 1014.2 hPa | 0 mm | - | - | - |
| 1777850894 | 23.89° C | 100% | 1014.2 hPa | 0 mm | - | - | - |
| 1777850594 | 23.89° C | 100% | 1014.3 hPa | 0 mm | - | - | - |
| 1777850294 | 23.89° C | 100% | 1014.3 hPa | 0 mm | - | - | - |
| 1777849994 | 24.44° C | 100% | 1014.2 hPa | 0 mm | - | - | - |
| 1777849694 | 24.44° C | 100% | 1014.1 hPa | 0 mm | - | - | - |
| 1777849394 | 24.44° C | 100% | 1014.1 hPa | 0 mm | - | - | - |
| 1777849094 | 24.44° C | 100% | 1014.1 hPa | 0 mm | - | - | - |
| 1777848838 | 25° C | 100% | 1014.2 hPa | 0 mm | - | - | - |
| 1777848794 | 25° C | 100% | 1014.2 hPa | 0 mm | - | - | - |
| 1777848494 | 25° C | 100% | 1014.1 hPa | 0 mm | - | - | - |
| 1777848447 | 25° C | 100% | 1014.2 hPa | 0 mm | - | - | - |
| 1777848194 | 25° C | 100% | 1014.1 hPa | 0 mm | - | - | - |
| 1777847894 | 25° C | 100% | 1014.2 hPa | 0 mm | - | - | - |
* Rain latest hour (hover to see other rain measurements)
** Current wind speed in m/s (hover to see current wind gust speed)